Regional Weather Roundup
Issued by NWS

Home | Current Version | Previous Version | Text Only | Print | Product List | Glossary On
Versions: 1 2 3 4 5 6 7 8 9 10 11 12 13 14 15 16 17 18 19 20 21 22 23 24 25 26 27 28 29 30 31 32 33 34 35 36 37 38 39 40 41 42 43 44 45 46 47 48 49 50
000
ASUS43 KDTX 281010
RWRMI
MICHIGAN HOURLY REGIONAL WEATHER ROUNDUP
NATIONAL WEATHER SERVICE DETROIT/PONTIAC MI
500 AM EST WED JAN 28 2015

NOTE: "FAIR" INDICATES FEW OR NO CLOUDS BELOW 12,000 FEET WITH NO
SIGNIFICANT WEATHER AND/OR OBSTRUCTION TO VISIBILITY.

MIZ047>049-052>055-059>063-066>070-074>076-081>083-281100-
SOUTHEAST LOWER MICHIGAN

CITY           SKY/WX    TMP DP  RH WIND       PRES   REMARKS
ADRIAN         PTCLDY     7   3  84 NW3       30.30R
ALMA           PTCLDY     5   3  91 CALM      30.30R
ANN ARBOR      CLEAR      5   2  87 W3        30.29R
BAD AXE        PTCLDY     3   1  90 CALM      30.28R
DETROIT CITY   PTCLDY    15   8  73 NW5       30.28R
DETROIT        PTCLDY    12   8  84 W3        30.30R
FLINT          PTCLDY     7   1  76 W5        30.30R
GROSSE ILE     CLEAR     10   9  92 W3        30.28R
HILLSDALE      MOCLDY     6   4  88 CALM      30.27R
HOWELL         PTCLDY     6   4  89 W3        30.28R

CITY           SKY/WX    TMP DP  RH WIND       PRES   REMARKS
JACKSON        MOCLDY     6   1  80 CALM      30.29R
LAMBERTVILLE   PTCLDY    10   5  79 CALM      30.30R
LANSING        PTCLDY    11   7  84 CALM      30.30R
LAPEER         NOT AVBL
MASON          PTCLDY     9   5  86 CALM      30.29R
MONROE         CLEAR     10   9  92 W5        30.28R
MT. CLEMENS    PTCLDY    11   7  85 W5        30.26R
PONTIAC        PTCLDY     5   1  83 W6        30.26R
PORT HOPE        N/A     11   7  84 SW7       30.26R
PORT HURON     CLEAR      1   0  92 CALM      30.27R
TRI CITIES     PTCLDY    10   6  84 W6        30.31R
YPSILANTI      CLEAR     12   5  73 NW6       30.29R
$$
MIZ043>046-050>051-056>058-064>065-071>073-077>080-281100-
SOUTHWEST LOWER MICHIGAN

CITY           SKY/WX    TMP DP  RH WIND       PRES   REMARKS
BATTLE CREEK   PTCLDY    12   5  73 CALM      30.29R
BENTON HARBOR  PTCLDY    11   9  92 CALM      30.30R
BIG RAPIDS     MOCLDY     4   2  90 CALM      30.26R
COLDWATER      PTCLDY     7   4  88 CALM      30.30R
HOLLAND        PTCLDY    14   9  80 CALM      30.30R
GRAND RAPIDS   PTCLDY    10   6  84 CALM      30.29R
KALAMAZOO      PTCLDY    10   5  80 CALM      30.29R
MARSHALL       MOCLDY     6   3  87 CALM      30.29R
MUSKEGON       PTCLDY    12   7  80 CALM      30.30R
$$
MIZ016>042-281100-
NORTHERN LOWER MICHIGAN

CITY           SKY/WX    TMP DP  RH WIND       PRES   REMARKS
ALPENA         MOCLDY    -3  -7  82 CALM      30.28R
BEAVER ISLAND  CLOUDY     6   3  86 CALM      30.25S
BELLAIRE       PTCLDY    -1  -4  85 CALM      30.30R
CADILLAC       PTCLDY    -2  -8  77 CALM      30.23R
CHARLEVOIX     PTCLDY     4   1  87 E3        30.30R
FRANKFORT      CLOUDY     9   7  90 CALM      30.26F
GAYLORD        PTCLDY    -5 -10  79 CALM      30.22R
GRAYLING       PTCLDY    -7 -12  81 CALM      30.26R
HARBOR SPRINGS PTCLDY     0  -4  81 CALM      30.26R
HOUGHTON LAKE  CLEAR     -3  -7  82 E3        30.26R
MANISTEE       PTCLDY     9   3  78 E6        30.27S
OSCODA         MOCLDY     3  -2  77 CALM      30.28R
PELLSTON       MOCLDY    -9 -14  78 W3        30.27S
TRAVERSE CITY  PTCLDY     5   1  83 CALM      30.27R
$$
MIZ007>008-015-281100-
EASTERN UPPER MICHIGAN

CITY           SKY/WX    TMP DP  RH WIND       PRES   REMARKS
KINROSS        MOCLDY     1  -2  85 CALM      30.25R
MACKINAC ISLAN MOCLDY     8  -2  63 SW7       30.25R
NEWBERRY       MOCLDY     1  -1  92 CALM      30.23R
S. S. MARIE    MOCLDY     1  -4  79 E3        30.24F
$$
MIZ004>006-011>014-085-281100-
CENTRAL UPPER MICHIGAN

CITY           SKY/WX    TMP DP  RH WIND       PRES   REMARKS
MANISTIQUE     CLOUDY    13  11  92 CALM      30.23S
ESCANABA       CLOUDY    19  16  86 S5        30.24R
MENOMINEE      CLOUDY    19  16  86 CALM      30.23F
SAWYER-GWINN   CLOUDY    21  17  86 S10       30.14F
$$
MIZ001>003-009>011-084-281100-
WESTERN UPPER MICHIGAN

CITY           SKY/WX    TMP DP  RH WIND       PRES   REMARKS
IRON MOUNTAIN  CLOUDY    21  16  81 S7        30.15F
HOUGHTON       CLOUDY    23  18  81 S5        30.11S
COPPER HARBOR    N/A     26  19  74 SW6       30.15S
IRONWOOD       CLOUDY    25  21  86 S6        30.07F
$$

ABBREVIATIONS USED IN REMARKS
   TC - TEMPERATURE IN CELSIUS
  WCI - WIND CHILL INDEX
   HX - HEAT INDEX
  VSB - VISIBILITY



USA.gov is the U.S. government's official web portal to all federal, state and local government web resources and services.